DELTA 1 DEB, 3417

Orbit data source: Space-Track

DELTA 1 DEB, 3417 is space debris in SSO originally from a launch on Fri, 16 Aug 1968 UTC launched from the Air Force Western Test Range (AFWTR). Debris objects in space refer to the collection of defunct objects orbiting the Earth. Examples of debris include non-operational satellites, rocket bodies, and fragments generated from explosions, collisions, or faulty payload assembly.

Loading next visibility...
Identifier
3417, 1968-069D
Orbit
SSO
Last TLE update
18 hours ago
Origin
Manufacturer
Unknown
Mission
Spacecraft
Bus & Motor
Unknown
Mass
Unknown
Launch date (UTC)
1968-08-16 (57 years ago)
Launch vehicle
Unknown
Launch site
Air Force Western Test Range (AFWTR)
Object type
Payload
Rocket body
Debris
Shape & HBR
Unknown
Radar Cross Section
Small (<0.1 m²)

Expand to show TLE details & history

TLE from 18 hours ago
0 DELTA 1 DEB
1 03417U 68069D   25129.31463309 -.00000036  00000-0  70884-4 0  9993
2 03417 102.1401  69.5917 0066473  81.9106  70.6344 12.39769106872784
Epoch: 2025-05-09T07:33Z
Definitive object data (Epoch: 2025-05-09T07:33:04.298Z)
Latitude
26.12456°
Longitude
-85.02269°
Altitude
1,493.359 km
Speed
7.127 km/s
True Right ascension
17h 02m 28s
True Declination
26° 00' 06"
Sunlit
Object was in full shadow at TLE epoch
Visualization TLE readout
Latitude
-36.75072°
Longitude
-99.50962°
Altitude
1,559.366 km
Speed
7.07 km/s
Apparent Right ascension
18h 22m 19s
Apparent Declination
-45° 45' 14"
Sunlit
Object is in full shadow
Visualization observer readout
Local Sidereal Time
09:31:35
Azimuth
115.614° SE
Elevation
-55.331°
Doppler factor
1
Orbital elements
Apogee altitude
1,557.568 km
Perigee altitude
1,452.763 km
Semi-major axis
7,883.302 km
Eccentricity
0.0066473
Inclination
102.1401°
RAAN
69.5917°
Arg. of periapsis
81.9106°
True anomaly
71.35499°
Mean anomaly
70.6344°
Eccentric anomaly
70.9945°
Mean motion
3.10085 °/min
BSTAR
0.000070884
Orbital period
116.1 mins
Loading maneuver chart data...
Loading SW <> Apogee altitude chart data...
Loading historical data...
Loading historical data...
Loading historical data...
Loading historical data...
Loading historical data...
Loading historical data...
Loading historical data...

DELTA 1 DEB Visibility forecast

Observer location: undefined°, undefined°

Span
Click to sort rows by Start time (UTC) header in descending order
Start Az.
Max El. time (UTC)
Max El. Az.
Max El.
End time (UTC)
End Az.
16 mins2025-05-10 08:31:39.360Z25.096° NE2025-05-10 08:39:39.360Z105.413° ESE41.191°2025-05-10 08:47:39.360Z183.365° SSW
12 mins2025-05-10 10:27:39.360Z353.301° N2025-05-10 10:32:39.360Z307.943° NW27.728°2025-05-10 10:39:39.360Z246.913° WSW
9 mins2025-05-10 17:48:39.360Z81.358° E2025-05-10 17:52:39.360Z46.958° ENE19.152°2025-05-10 17:57:39.360Z8.83° NNE
15 mins2025-05-10 19:37:39.360Z158.051° S2025-05-10 19:44:39.360Z137.3° SSE44.755°2025-05-10 19:52:39.360Z342.944° N
9 mins2025-05-10 21:35:39.360Z234.178° WSW2025-05-10 21:39:39.360Z265.726° W17.332°2025-05-10 21:44:39.360Z304.972° NW
|